| time (UTC) | temp F | wind direction | speed MPH | gust MPH | rain 1hr in | rain 24hr in | rain mn in | humidity % | barometer mb |
| 20260509070359 | 61 | 83 | 0.0 | 0.0 | 0.00 | 0.00 | 0.00 | 16 | 1016.6 |
| 20260509063359 | 60 | 86 | 0.0 | 0.0 | 0.00 | 0.00 | 0.00 | 21 | 1017.0 |
| 20260509060402 | 59 | 83 | 0.0 | 0.0 | 0.00 | 0.00 | 0.00 | 44 | 1017.2 |
| 20260509053359 | 59 | 85 | 0.0 | 0.0 | 0.00 | 0.00 | 0.00 | 44 | 1017.7 |
| 20260509050359 | 59 | 89 | 0.0 | 0.0 | 0.00 | 0.00 | 0.00 | 38 | 1017.9 |
| 20260509043359 | 59 | 99 | 0.0 | 0.0 | 0.00 | 0.00 | 0.00 | 41 | 1017.9 |
| 20260509040359 | 59 | 91 | 0.0 | 0.0 | 0.00 | 0.00 | 0.00 | 41 | 1017.8 |
| 20260509033402 | 60 | 88 | 0.0 | 0.0 | 0.00 | 0.00 | 0.00 | 30 | 1017.7 |
| 20260509030359 | 59 | 82 | 0.0 | 0.0 | 0.00 | 0.00 | 0.00 | 36 | 1017.4 |
| 20260509023359 | 59 | 82 | 0.0 | 0.0 | 0.00 | 0.00 | 0.00 | 47 | 1017.1 |
| 20260509020359 | 61 | 124 | 0.0 | 0.0 | 0.00 | 0.00 | 0.00 | 58 | 1017.0 |
| 20260509013359 | 63 | 145 | 0.0 | 0.0 | 0.00 | 0.00 | 0.00 | 55 | 1017.0 |
| 20260509010359 | 64 | 177 | 0.0 | 0.0 | 0.00 | 0.00 | 0.00 | 51 | 1017.0 |
| 20260509003402 | 65 | 172 | 0.0 | 0.0 | 0.00 | 0.00 | 0.00 | 48 | 1016.9 |
| 20260509000359 | 66 | 208 | 0.0 | 0.0 | 0.00 | 0.00 | 0.00 | 48 | 1016.9 |
| 20260508233359 | 67 | 172 | 0.0 | 0.0 | 0.00 | 0.00 | 0.00 | 46 | 1016.8 |
| 20260508230359 | 67 | 189 | 0.0 | 0.0 | 0.00 | 0.00 | 0.00 | 34 | 1016.6 |
| 20260508223359 | 68 | 158 | 0.0 | 0.0 | 0.00 | 0.00 | 0.00 | 40 | 1016.5 |
| 20260508220359 | 68 | 159 | 0.0 | 0.0 | 0.00 | 0.00 | 0.00 | 49 | 1016.5 |
| 20260508213359 | 69 | 159 | 0.0 | 1.0 | 0.00 | 0.00 | 0.00 | 51 | 1016.6 |
| 20260508210359 | 70 | 122 | 0.0 | 0.0 | 0.00 | 0.00 | 0.00 | 47 | 1016.5 |
| 20260508203402 | 73 | 149 | 0.0 | 0.0 | 0.00 | 0.00 | 0.00 | 42 | 1016.6 |
| 20260508200402 | 73 | 188 | 0.0 | 1.0 | 0.00 | 0.00 | 0.00 | 36 | 1016.4 |
| 20260508193359 | 75 | 168 | 0.0 | 0.0 | 0.00 | 0.00 | 0.00 | 33 | 1016.3 |
| 20260508190359 | 73 | 175 | 0.0 | 0.0 | 0.00 | 0.00 | 0.00 | 33 | 1016.3 |
| 20260508183359 | 73 | 145 | 0.0 | 0.0 | 0.00 | 0.00 | 0.00 | 36 | 1016.2 |
| 20260508180359 | 73 | 210 | 0.0 | 0.0 | 0.00 | 0.00 | 0.00 | 37 | 1016.2 |
| 20260508173359 | 71 | 105 | 0.0 | 0.0 | 0.00 | 0.00 | 0.00 | 26 | 1016.0 |
| 20260508170359 | 68 | 101 | 0.0 | 0.0 | 0.00 | 0.00 | 0.00 | 28 | 1016.0 |
| 20260508163359 | 65 | 112 | 0.0 | 0.0 | 0.00 | 0.00 | 0.00 | 31 | 1015.9 |
| 20260508160359 | 64 | 99 | 0.0 | 0.0 | 0.00 | 0.00 | 0.00 | 29 | 1015.8 |
| 20260508153359 | 63 | 96 | 0.0 | 0.0 | 0.00 | 0.00 | 0.00 | 29 | 1015.8 |
| 20260508150359 | 62 | 101 | 0.0 | 0.0 | 0.00 | 0.00 | 0.00 | 31 | 1015.7 |
| 20260508143359 | 60 | 85 | 0.0 | 0.0 | 0.00 | 0.00 | 0.00 | 32 | 1015.5 |
| 20260508140359 | 58 | 13 | 0.0 | 0.0 | 0.00 | 0.00 | 0.00 | 33 | 1015.6 |
| 20260508133359 | 58 | 12 | 0.0 | 0.0 | 0.00 | 0.00 | 0.00 | 31 | 1015.4 |
| 20260508130359 | 59 | 12 | 0.0 | 0.0 | 0.00 | 0.00 | 0.00 | 30 | 1015.4 |
| 20260508123359 | 59 | 12 | 0.0 | 0.0 | 0.00 | 0.00 | 0.00 | 26 | 1015.4 |
| 20260508120359 | 58 | 6 | 0.0 | 0.0 | 0.00 | 0.00 | 0.00 | 28 | 1015.5 |
| 20260508113359 | 58 | 9 | 0.0 | 0.0 | 0.00 | 0.00 | 0.00 | 30 | 1015.6 |
| 20260508110359 | 58 | 336 | 0.0 | 0.0 | 0.00 | 0.00 | 0.00 | 29 | 1016.0 |
| 20260508103402 | 58 | 351 | 0.0 | 0.0 | 0.00 | 0.00 | 0.00 | 31 | 1016.2 |
| 20260508100402 | 57 | 316 | 0.0 | 0.0 | 0.00 | 0.00 | 0.00 | 34 | 1016.4 |
| 20260508093359 | 58 | 315 | 0.0 | 2.0 | 0.00 | 0.00 | 0.00 | 33 | 1016.6 |
| 20260508090359 | 58 | 326 | 0.0 | 0.0 | 0.00 | 0.00 | 0.00 | 35 | 1017.0 |
| 20260508083402 | 58 | 310 | 0.0 | 1.0 | 0.00 | 0.00 | 0.00 | 37 | 1017.4 |
| 20260508080402 | 59 | 304 | 0.0 | 0.0 | 0.00 | 0.00 | 0.00 | 38 | 1018.1 |
| 20260508073359 | 59 | 315 | 0.0 | 1.0 | 0.00 | 0.00 | 0.00 | 36 | 1018.4 |